GFSFLT2_prec_pwat_165.txt.gz
Precipitable_Water
0.56 0.61 0.63 0.65 0.62 0.54 0.51 0.54 0.59 0.59 0.65 0.63 0.62 0.62 0.60 0.58 0.59 0.59 0.60 0.60 0.61 0.61 0.61 0.61 0.62 0.64 0.65
0.45 0.48 0.52 0.58 0.56 0.44 0.45 0.52 0.53 0.56 0.56 0.54 0.54 0.54 0.55 0.55 0.54 0.51 0.48 0.46 0.46 0.46 0.46 0.45 0.45 0.44 0.45
0.35 0.40 0.42 0.44 0.38 0.36 0.42 0.47 0.49 0.50 0.48 0.48 0.51 0.51 0.49 0.47 0.45 0.44 0.41 0.41 0.41 0.41 0.40 0.40 0.40 0.42 0.44
0.27 0.27 0.28 0.30 0.30 0.28 0.33 0.41 0.42 0.41 0.36 0.37 0.37 0.37 0.36 0.34 0.34 0.34 0.37 0.41 0.44 0.44 0.43 0.41 0.40 0.40 0.41
0.21 0.21 0.21 0.21 0.22 0.26 0.25 0.28 0.27 0.28 0.25 0.25 0.27 0.29 0.30 0.30 0.31 0.33 0.37 0.39 0.40 0.41 0.42 0.43 0.43 0.44 0.43
0.25 0.21 0.20 0.21 0.22 0.22 0.22 0.20 0.18 0.26 0.25 0.24 0.28 0.27 0.28 0.29 0.34 0.37 0.39 0.38 0.39 0.39 0.40 0.41 0.42 0.43 0.43
0.39 0.33 0.29 0.27 0.25 0.22 0.22 0.21 0.20 0.22 0.23 0.20 0.25 0.24 0.27 0.29 0.36 0.40 0.40 0.40 0.41 0.38 0.39 0.41 0.42 0.42 0.43
0.47 0.43 0.41 0.39 0.37 0.34 0.30 0.26 0.25 0.25 0.25 0.18 0.22 0.22 0.25 0.28 0.36 0.40 0.40 0.41 0.39 0.39 0.40 0.40 0.41 0.41 0.42
0.51 0.48 0.45 0.43 0.40 0.37 0.31 0.29 0.26 0.26 0.29 0.25 0.24 0.23 0.25 0.27 0.37 0.40 0.40 0.41 0.41 0.40 0.39 0.41 0.42 0.42 0.41
0.49 0.51 0.49 0.47 0.46 0.40 0.36 0.29 0.28 0.25 0.29 0.27 0.27 0.27 0.25 0.31 0.35 0.41 0.43 0.43 0.42 0.40 0.41 0.42 0.42 0.43 0.40
0.47 0.48 0.49 0.46 0.46 0.43 0.38 0.34 0.30 0.29 0.32 0.31 0.28 0.28 0.28 0.30 0.34 0.38 0.40 0.40 0.39 0.39 0.41 0.40 0.42 0.42 0.37
0.46 0.44 0.45 0.48 0.45 0.43 0.41 0.40 0.38 0.34 0.35 0.35 0.31 0.31 0.31 0.31 0.33 0.37 0.39 0.40 0.41 0.41 0.41 0.41 0.41 0.39 0.37
0.45 0.45 0.45 0.45 0.48 0.47 0.45 0.42 0.40 0.39 0.38 0.37 0.36 0.35 0.35 0.34 0.35 0.37 0.39 0.43 0.45 0.42 0.42 0.40 0.38 0.35 0.32
0.47 0.48 0.49 0.49 0.50 0.48 0.44 0.40 0.40 0.37 0.40 0.42 0.40 0.38 0.35 0.37 0.38 0.38 0.44 0.42 0.44 0.43 0.42 0.40 0.37 0.35 0.33
0.52 0.50 0.50 0.51 0.52 0.50 0.47 0.45 0.40 0.38 0.38 0.41 0.44 0.42 0.41 0.40 0.39 0.45 0.49 0.46 0.45 0.43 0.40 0.36 0.33 0.32 0.33
0.54 0.53 0.52 0.51 0.50 0.50 0.49 0.44 0.41 0.43 0.43 0.42 0.42 0.41 0.41 0.46 0.52 0.50 0.48 0.44 0.43 0.41 0.38 0.33 0.31 0.31 0.33
0.54 0.53 0.52 0.52 0.50 0.49 0.48 0.47 0.46 0.46 0.46 0.46 0.43 0.43 0.41 0.41 0.47 0.52 0.47 0.44 0.42 0.38 0.36 0.33 0.30 0.30 0.32

GFSFLT2_prec_pwat_171.txt.gz
Precipitable_Water
0.36 0.43 0.41 0.44 0.50 0.51 0.48 0.45 0.44 0.41 0.46 0.50 0.51 0.52 0.52 0.53 0.53 0.52 0.54 0.60 0.69 0.75 0.79 0.80 0.78 0.75 0.75
0.35 0.38 0.41 0.41 0.42 0.39 0.39 0.36 0.34 0.36 0.42 0.44 0.47 0.48 0.48 0.49 0.50 0.49 0.49 0.51 0.52 0.52 0.53 0.55 0.56 0.57 0.58
0.40 0.43 0.44 0.44 0.39 0.37 0.34 0.34 0.34 0.32 0.36 0.39 0.44 0.44 0.43 0.42 0.42 0.43 0.48 0.50 0.47 0.46 0.44 0.44 0.46 0.47 0.48
0.50 0.48 0.47 0.46 0.46 0.40 0.36 0.41 0.38 0.37 0.33 0.32 0.36 0.36 0.34 0.31 0.29 0.28 0.33 0.37 0.38 0.39 0.40 0.40 0.39 0.39 0.39
0.43 0.43 0.42 0.39 0.37 0.39 0.38 0.35 0.37 0.37 0.36 0.34 0.32 0.32 0.31 0.29 0.28 0.27 0.32 0.37 0.37 0.38 0.36 0.35 0.35 0.35 0.36
0.44 0.42 0.42 0.41 0.41 0.39 0.38 0.35 0.31 0.41 0.33 0.32 0.35 0.33 0.35 0.33 0.32 0.33 0.33 0.36 0.36 0.34 0.32 0.31 0.31 0.33 0.34
0.48 0.48 0.45 0.45 0.44 0.41 0.40 0.37 0.35 0.39 0.36 0.30 0.34 0.30 0.34 0.34 0.33 0.36 0.39 0.38 0.37 0.34 0.32 0.32 0.33 0.33 0.34
0.57 0.54 0.52 0.50 0.48 0.45 0.43 0.41 0.40 0.40 0.39 0.30 0.35 0.31 0.33 0.33 0.34 0.37 0.40 0.40 0.39 0.37 0.35 0.35 0.35 0.35 0.35
0.60 0.61 0.60 0.58 0.53 0.48 0.43 0.38 0.35 0.36 0.40 0.34 0.34 0.32 0.32 0.30 0.33 0.36 0.39 0.40 0.40 0.39 0.38 0.39 0.38 0.38 0.37
0.54 0.55 0.55 0.55 0.54 0.51 0.45 0.38 0.36 0.33 0.37 0.34 0.33 0.31 0.28 0.33 0.32 0.37 0.39 0.39 0.39 0.39 0.40 0.40 0.39 0.38 0.37
0.50 0.49 0.48 0.48 0.48 0.48 0.47 0.40 0.35 0.32 0.39 0.36 0.34 0.35 0.29 0.27 0.31 0.33 0.37 0.38 0.39 0.38 0.40 0.39 0.40 0.40 0.38
0.47 0.44 0.45 0.45 0.47 0.47 0.47 0.44 0.43 0.41 0.42 0.42 0.34 0.35 0.32 0.28 0.26 0.32 0.32 0.33 0.34 0.34 0.36 0.39 0.41 0.43 0.43
0.46 0.46 0.48 0.50 0.51 0.51 0.50 0.49 0.47 0.43 0.42 0.44 0.42 0.42 0.39 0.33 0.33 0.31 0.31 0.34 0.36 0.36 0.38 0.39 0.41 0.43 0.43
0.48 0.50 0.51 0.51 0.51 0.53 0.50 0.49 0.44 0.43 0.45 0.46 0.47 0.43 0.40 0.39 0.36 0.33 0.34 0.30 0.36 0.37 0.39 0.43 0.49 0.49 0.49
0.48 0.49 0.50 0.51 0.51 0.53 0.50 0.49 0.45 0.44 0.45 0.49 0.51 0.50 0.48 0.43 0.39 0.37 0.35 0.37 0.40 0.42 0.47 0.45 0.45 0.47 0.51
0.45 0.47 0.47 0.48 0.48 0.49 0.49 0.47 0.45 0.46 0.47 0.48 0.47 0.45 0.44 0.44 0.46 0.39 0.40 0.41 0.43 0.47 0.46 0.43 0.44 0.49 0.50
0.41 0.43 0.45 0.46 0.46 0.46 0.47 0.46 0.45 0.46 0.47 0.47 0.46 0.43 0.39 0.37 0.45 0.50 0.44 0.46 0.47 0.46 0.46 0.45 0.45 0.47 0.45

GFSFLT2_prec_pwat_174.txt.gz
Precipitable_Water
0.46 0.46 0.41 0.40 0.40 0.43 0.45 0.42 0.38 0.36 0.36 0.40 0.43 0.49 0.46 0.46 0.48 0.50 0.55 0.60 0.66 0.72 0.76 0.77 0.80 0.86 0.88
0.52 0.49 0.47 0.49 0.48 0.43 0.43 0.41 0.35 0.33 0.33 0.36 0.38 0.44 0.43 0.40 0.39 0.43 0.49 0.50 0.52 0.53 0.55 0.58 0.58 0.62 0.65
0.56 0.58 0.55 0.55 0.54 0.53 0.50 0.46 0.47 0.45 0.41 0.40 0.42 0.44 0.41 0.37 0.33 0.33 0.38 0.40 0.41 0.42 0.43 0.45 0.47 0.49 0.50
0.52 0.51 0.51 0.49 0.47 0.42 0.38 0.41 0.41 0.44 0.40 0.38 0.38 0.41 0.40 0.37 0.33 0.30 0.35 0.37 0.37 0.36 0.36 0.36 0.38 0.39 0.39
0.49 0.48 0.46 0.44 0.41 0.42 0.41 0.41 0.39 0.41 0.40 0.39 0.36 0.35 0.36 0.36 0.33 0.32 0.33 0.39 0.40 0.39 0.37 0.35 0.34 0.34 0.34
0.48 0.46 0.47 0.47 0.46 0.44 0.42 0.39 0.35 0.44 0.40 0.35 0.38 0.34 0.35 0.35 0.34 0.34 0.35 0.38 0.39 0.38 0.36 0.35 0.34 0.34 0.33
0.50 0.51 0.50 0.52 0.49 0.45 0.44 0.42 0.39 0.41 0.40 0.36 0.38 0.35 0.36 0.36 0.36 0.35 0.36 0.39 0.38 0.36 0.35 0.33 0.34 0.34 0.34
0.61 0.59 0.58 0.57 0.52 0.49 0.47 0.45 0.45 0.45 0.43 0.36 0.38 0.35 0.36 0.37 0.37 0.35 0.38 0.41 0.40 0.38 0.36 0.34 0.34 0.35 0.36
0.61 0.60 0.61 0.62 0.59 0.53 0.47 0.43 0.41 0.41 0.43 0.37 0.36 0.34 0.35 0.35 0.36 0.36 0.37 0.41 0.40 0.40 0.38 0.37 0.37 0.37 0.36
0.55 0.56 0.57 0.56 0.56 0.53 0.50 0.43 0.41 0.37 0.41 0.36 0.34 0.33 0.29 0.38 0.36 0.38 0.37 0.38 0.40 0.39 0.39 0.38 0.39 0.37 0.35
0.51 0.51 0.51 0.52 0.52 0.53 0.52 0.47 0.41 0.38 0.41 0.38 0.33 0.32 0.31 0.31 0.35 0.35 0.36 0.35 0.37 0.38 0.38 0.39 0.38 0.36 0.34
0.51 0.49 0.50 0.50 0.51 0.51 0.51 0.51 0.49 0.45 0.45 0.43 0.34 0.34 0.33 0.32 0.31 0.37 0.35 0.33 0.33 0.32 0.33 0.33 0.34 0.36 0.38
0.48 0.49 0.51 0.52 0.52 0.52 0.52 0.53 0.52 0.50 0.49 0.47 0.41 0.38 0.37 0.37 0.37 0.39 0.36 0.34 0.35 0.34 0.34 0.33 0.33 0.35 0.34
0.45 0.48 0.51 0.51 0.49 0.51 0.50 0.49 0.47 0.48 0.51 0.49 0.46 0.43 0.38 0.40 0.39 0.37 0.39 0.34 0.35 0.35 0.35 0.34 0.35 0.43 0.43
0.44 0.43 0.44 0.46 0.47 0.51 0.50 0.48 0.44 0.44 0.46 0.47 0.48 0.47 0.46 0.45 0.42 0.43 0.40 0.40 0.40 0.38 0.39 0.39 0.44 0.46 0.45
0.41 0.40 0.39 0.40 0.42 0.45 0.46 0.44 0.43 0.44 0.44 0.46 0.46 0.44 0.44 0.46 0.48 0.42 0.41 0.41 0.42 0.42 0.42 0.42 0.43 0.46 0.47
0.39 0.39 0.40 0.40 0.39 0.39 0.41 0.41 0.41 0.42 0.44 0.46 0.44 0.41 0.37 0.36 0.44 0.49 0.43 0.44 0.44 0.44 0.46 0.45 0.42 0.44 0.47

GFSFLT2_prec_pwat_177.txt.gz
Precipitable_Water
0.63 0.61 0.58 0.53 0.48 0.49 0.46 0.43 0.41 0.37 0.34 0.32 0.34 0.39 0.45 0.42 0.40 0.45 0.52 0.55 0.56 0.59 0.64 0.71 0.78 0.83 0.91
0.61 0.63 0.61 0.60 0.56 0.53 0.51 0.52 0.48 0.45 0.43 0.39 0.38 0.40 0.43 0.41 0.38 0.38 0.43 0.47 0.48 0.50 0.50 0.51 0.53 0.58 0.64
0.55 0.62 0.62 0.61 0.57 0.56 0.53 0.52 0.49 0.47 0.50 0.48 0.44 0.44 0.44 0.41 0.37 0.33 0.38 0.39 0.40 0.42 0.44 0.46 0.48 0.51 0.53
0.54 0.55 0.57 0.57 0.54 0.47 0.44 0.44 0.43 0.44 0.44 0.42 0.41 0.40 0.42 0.41 0.37 0.33 0.35 0.38 0.38 0.37 0.36 0.36 0.37 0.39 0.41
0.49 0.51 0.51 0.50 0.47 0.47 0.44 0.44 0.44 0.43 0.40 0.40 0.40 0.38 0.39 0.41 0.39 0.35 0.32 0.37 0.38 0.38 0.37 0.35 0.34 0.35 0.35
0.51 0.47 0.48 0.50 0.51 0.48 0.45 0.42 0.38 0.46 0.41 0.38 0.41 0.38 0.38 0.38 0.38 0.37 0.34 0.35 0.39 0.38 0.37 0.35 0.34 0.34 0.33
0.53 0.53 0.52 0.54 0.53 0.50 0.48 0.45 0.44 0.46 0.45 0.41 0.42 0.38 0.38 0.38 0.39 0.39 0.38 0.38 0.41 0.39 0.37 0.36 0.35 0.35 0.35
0.61 0.60 0.59 0.58 0.56 0.53 0.50 0.49 0.49 0.49 0.47 0.39 0.43 0.38 0.38 0.39 0.40 0.41 0.40 0.40 0.43 0.41 0.39 0.37 0.35 0.35 0.36
0.58 0.60 0.62 0.62 0.60 0.54 0.49 0.46 0.43 0.45 0.48 0.42 0.41 0.39 0.39 0.37 0.39 0.41 0.41 0.41 0.44 0.40 0.41 0.38 0.37 0.36 0.36
0.53 0.54 0.58 0.60 0.61 0.56 0.51 0.44 0.43 0.42 0.46 0.41 0.40 0.37 0.30 0.36 0.37 0.38 0.40 0.42 0.45 0.42 0.40 0.39 0.38 0.37 0.34
0.50 0.50 0.51 0.53 0.53 0.54 0.53 0.49 0.44 0.43 0.47 0.43 0.38 0.37 0.32 0.28 0.32 0.34 0.37 0.38 0.40 0.40 0.40 0.39 0.38 0.38 0.33
0.50 0.51 0.53 0.54 0.55 0.55 0.56 0.57 0.55 0.51 0.51 0.48 0.41 0.38 0.34 0.31 0.29 0.35 0.37 0.41 0.42 0.38 0.36 0.34 0.32 0.33 0.34
0.47 0.46 0.49 0.53 0.56 0.56 0.55 0.54 0.54 0.54 0.53 0.51 0.46 0.44 0.41 0.36 0.33 0.35 0.36 0.41 0.41 0.38 0.35 0.33 0.31 0.32 0.31
0.47 0.48 0.49 0.49 0.48 0.50 0.49 0.49 0.47 0.49 0.53 0.53 0.52 0.49 0.43 0.41 0.38 0.35 0.40 0.37 0.38 0.39 0.38 0.36 0.35 0.35 0.35
0.44 0.42 0.41 0.42 0.43 0.46 0.45 0.44 0.42 0.43 0.46 0.50 0.52 0.50 0.47 0.43 0.38 0.40 0.41 0.41 0.43 0.41 0.41 0.38 0.37 0.38 0.42
0.44 0.43 0.40 0.38 0.38 0.41 0.42 0.40 0.38 0.41 0.43 0.45 0.45 0.43 0.42 0.44 0.46 0.42 0.42 0.42 0.43 0.42 0.42 0.39 0.38 0.42 0.47
0.40 0.41 0.41 0.40 0.37 0.37 0.38 0.39 0.38 0.39 0.40 0.42 0.40 0.38 0.34 0.33 0.40 0.45 0.40 0.41 0.42 0.43 0.44 0.43 0.42 0.44 0.46